UAE370 OMDB-VTBS

Flight info

Callsign UAE370
Flight time 5h 32m
Altitude 35000
Route IVURO M677 LALDO B505 NADSO B524 ALPOR M504 TELEM A791 BPL T1 OGUNA/N0483F370 T1 BBS N895 BETNO P646 TARED WILLA1C
Aircraft B77W/H-SDE1E2E3FGHIJ2J3J4J5M1RWXY/C

Departure

Time 2026-04-25 07:27
Airport Dubai International Airport (OMDB)

Arrival

Time 2026-04-25 12:59
Airport Suvarnabhumi Airport (VTBS)
Time Latitude Longitude Altitude Speed Heading
2026-04-25 06:32 25.24624 55.36367 76 ft 0 kts 31°
2026-04-25 07:02 25.24612 55.36359 76 ft 2 kts 31°
2026-04-25 07:03 25.24599 55.36351 76 ft 2 kts 31°
2026-04-25 07:03 25.24587 55.36341 76 ft 2 kts 49°
2026-04-25 07:03 25.24579 55.36327 76 ft 2 kts 64°
2026-04-25 07:03 25.24574 55.36312 76 ft 2 kts 79°
2026-04-25 07:04 25.24572 55.36295 76 ft 2 kts 94°
2026-04-25 07:04 25.24575 55.36279 76 ft 2 kts 109°
2026-04-25 07:04 25.24579 55.36268 76 ft 0 kts 120°
2026-04-25 07:04 25.24574 55.36279 76 ft 4 kts 118°
2026-04-25 07:05 25.24564 55.36298 76 ft 0 kts 122°
2026-04-25 07:05 25.24562 55.36301 76 ft 0 kts 121°
2026-04-25 07:11 25.24557 55.36308 76 ft 2 kts 122°
2026-04-25 07:11 25.24541 55.36338 76 ft 6 kts 121°
2026-04-25 07:11 25.24511 55.36390 76 ft 9 kts 122°
2026-04-25 07:12 25.24478 55.36453 76 ft 10 kts 119°
2026-04-25 07:12 25.24469 55.36620 76 ft 12 kts 63°
2026-04-25 07:12 25.24530 55.36687 76 ft 12 kts 34°
2026-04-25 07:13 25.24608 55.36742 76 ft 13 kts 32°
2026-04-25 07:13 25.24623 55.36752 76 ft 0 kts 32°
2026-04-25 07:14 25.24623 55.36753 76 ft 0 kts 32°
2026-04-25 07:14 25.24635 55.36761 76 ft 3 kts 32°
2026-04-25 07:14 25.24676 55.36789 76 ft 9 kts 31°
2026-04-25 07:14 25.24751 55.36840 76 ft 15 kts 32°
2026-04-25 07:15 25.24844 55.36826 76 ft 17 kts 295°
2026-04-25 07:15 25.24879 55.36706 76 ft 11 kts 291°
2026-04-25 07:15 25.24911 55.36629 76 ft 10 kts 300°
2026-04-25 07:15 25.24946 55.36565 76 ft 9 kts 300°
2026-04-25 07:16 25.24977 55.36509 76 ft 8 kts 300°
2026-04-25 07:16 25.25009 55.36451 76 ft 9 kts 302°
2026-04-25 07:16 25.25043 55.36388 76 ft 9 kts 299°
2026-04-25 07:16 25.25091 55.36340 76 ft 9 kts 345°
2026-04-25 07:17 25.25157 55.36358 76 ft 10 kts 30°
2026-04-25 07:17 25.25167 55.36364 76 ft 0 kts 30°
2026-04-25 07:18 25.25174 55.36369 76 ft 2 kts 30°
2026-04-25 07:18 25.25204 55.36388 76 ft 7 kts 30°
2026-04-25 07:19 25.25258 55.36424 76 ft 10 kts 32°
2026-04-25 07:19 25.25331 55.36474 76 ft 14 kts 31°
2026-04-25 07:19 25.25391 55.36523 76 ft 10 kts 59°
2026-04-25 07:19 25.25381 55.36614 76 ft 13 kts 114°
2026-04-25 07:20 25.25328 55.36716 76 ft 16 kts 122°
2026-04-25 07:20 25.25263 55.36835 76 ft 19 kts 120°
2026-04-25 07:20 25.25188 55.36965 76 ft 19 kts 121°
2026-04-25 07:20 25.25125 55.37083 76 ft 16 kts 121°
2026-04-25 07:21 25.25066 55.37189 76 ft 14 kts 121°
2026-04-25 07:21 25.25016 55.37281 76 ft 13 kts 121°
2026-04-25 07:21 25.24972 55.37362 76 ft 11 kts 121°
2026-04-25 07:21 25.24934 55.37433 76 ft 10 kts 121°
2026-04-25 07:22 25.24899 55.37495 76 ft 8 kts 122°
2026-04-25 07:22 25.24867 55.37551 76 ft 8 kts 122°
2026-04-25 07:22 25.24837 55.37603 76 ft 7 kts 122°
2026-04-25 07:22 25.24809 55.37654 76 ft 7 kts 120°
2026-04-25 07:23 25.24771 55.37723 76 ft 13 kts 121°
2026-04-25 07:23 25.24715 55.37822 76 ft 16 kts 121°
2026-04-25 07:23 25.24658 55.37925 76 ft 14 kts 121°
2026-04-25 07:23 25.24608 55.38015 76 ft 12 kts 121°
2026-04-25 07:24 25.24564 55.38096 76 ft 11 kts 120°
2026-04-25 07:24 25.24526 55.38165 76 ft 9 kts 121°
2026-04-25 07:24 25.24513 55.38231 76 ft 7 kts 69°
2026-04-25 07:24 25.24534 55.38260 76 ft 0 kts 39°
2026-04-25 07:25 25.24541 55.38266 76 ft 3 kts 39°
2026-04-25 07:25 25.24571 55.38291 76 ft 7 kts 34°
2026-04-25 07:26 25.24630 55.38307 76 ft 10 kts 340°
2026-04-25 07:26 25.24687 55.38237 76 ft 14 kts 302°
2026-04-25 07:26 25.24703 55.38208 76 ft 2 kts 302°
2026-04-25 07:26 25.24842 55.37964 76 ft 79 kts 302°
2026-04-25 07:27 25.25273 55.37183 77 ft 157 kts 302°
2026-04-25 07:27 25.25945 55.35971 343 ft 202 kts 301°
2026-04-25 07:27 25.26677 55.34638 1306 ft 211 kts 302°
2026-04-25 07:27 25.27450 55.33249 2375 ft 222 kts 302°
2026-04-25 07:28 25.28263 55.31791 3387 ft 237 kts 302°
2026-04-25 07:28 25.29361 55.30264 3914 ft 277 kts 321°
2026-04-25 07:28 25.31064 55.29302 3969 ft 273 kts 347°
2026-04-25 07:28 25.32968 55.29264 4193 ft 282 kts
2026-04-25 07:29 25.34875 55.29495 5330 ft 272 kts
2026-04-25 07:29 25.36709 55.29618 6429 ft 263 kts
2026-04-25 07:29 25.38521 55.29756 7201 ft 267 kts 12°
2026-04-25 07:29 25.40238 55.30639 7851 ft 276 kts 38°
2026-04-25 07:30 25.41622 55.32172 8341 ft 292 kts 49°
2026-04-25 07:30 25.42921 55.33937 9036 ft 299 kts 51°
2026-04-25 07:30 25.44219 55.35730 9870 ft 300 kts 51°
2026-04-25 07:30 25.45531 55.37533 10483 ft 311 kts 51°
2026-04-25 07:31 25.46933 55.39452 10940 ft 328 kts 51°
2026-04-25 07:31 25.48415 55.41477 11405 ft 345 kts 51°
2026-04-25 07:31 25.49830 55.43677 11859 ft 361 kts 60°
2026-04-25 07:31 25.50923 55.46225 12318 ft 377 kts 70°
2026-04-25 07:32 25.51601 55.49101 12807 ft 392 kts 82°
2026-04-25 07:32 25.51757 55.52133 13416 ft 400 kts 93°
2026-04-25 07:32 25.51367 55.55155 14151 ft 405 kts 105°
2026-04-25 07:32 25.50425 55.58094 14849 ft 409 kts 117°
2026-04-25 07:33 25.48956 55.60796 15572 ft 412 kts 128°
2026-04-25 07:33 25.47163 55.63288 16304 ft 417 kts 130°
2026-04-25 07:33 25.45391 55.65829 17047 ft 422 kts 128°
2026-04-25 07:33 25.43693 55.68531 17737 ft 428 kts 122°
2026-04-25 07:34 25.42397 55.71499 18400 ft 435 kts 111°
2026-04-25 07:34 25.41539 55.74699 19073 ft 441 kts 105°
2026-04-25 07:34 25.40817 55.77996 19747 ft 446 kts 104°
2026-04-25 07:34 25.40093 55.81361 20424 ft 450 kts 104°
2026-04-25 07:35 25.39370 55.84728 21092 ft 455 kts 104°
2026-04-25 07:35 25.38645 55.88109 21721 ft 459 kts 104°
2026-04-25 07:35 25.37904 55.91561 22337 ft 464 kts 104°
2026-04-25 07:35 25.37156 55.95050 22937 ft 469 kts 104°
2026-04-25 07:36 25.36399 55.98575 23521 ft 474 kts 104°
2026-04-25 07:36 25.35637 56.02128 24092 ft 478 kts 104°
2026-04-25 07:36 25.34865 56.05719 24648 ft 483 kts 104°
2026-04-25 07:36 25.34089 56.09326 25206 ft 488 kts 104°
2026-04-25 07:37 25.33296 56.13010 25765 ft 492 kts 104°
2026-04-25 07:37 25.32678 56.16727 26285 ft 497 kts 97°
2026-04-25 07:37 25.32337 56.20499 26805 ft 501 kts 95°
2026-04-25 07:37 25.32023 56.24334 27293 ft 506 kts 95°
2026-04-25 07:38 25.31702 56.28241 27833 ft 510 kts 95°
2026-04-25 07:38 25.31380 56.32145 28348 ft 514 kts 95°
2026-04-25 07:38 25.31055 56.36059 28834 ft 518 kts 95°
2026-04-25 07:38 25.30722 56.40039 29383 ft 521 kts 95°
2026-04-25 07:39 25.30534 56.44024 30067 ft 521 kts 91°
2026-04-25 07:39 25.30439 56.47974 30838 ft 518 kts 91°
2026-04-25 07:39 25.30342 56.51966 31594 ft 516 kts 91°
2026-04-25 07:39 25.30227 56.55913 32253 ft 514 kts 94°
2026-04-25 07:40 25.29761 56.59753 32782 ft 513 kts 103°
2026-04-25 07:40 25.28760 56.63578 33263 ft 512 kts 111°
2026-04-25 07:40 25.27441 56.67212 33761 ft 512 kts 114°
2026-04-25 07:40 25.26080 56.70815 34259 ft 511 kts 114°
2026-04-25 07:41 25.24700 56.74454 34737 ft 510 kts 114°
2026-04-25 07:41 25.23312 56.78111 34903 ft 514 kts 114°
2026-04-25 07:41 25.20535 56.85423 34908 ft 510 kts 114°
2026-04-25 07:42 25.17786 56.92646 34911 ft 510 kts 114°
2026-04-25 07:42 25.15021 56.99902 34910 ft 510 kts 114°
2026-04-25 07:43 25.12284 57.07070 34907 ft 510 kts 114°
2026-04-25 07:43 25.09528 57.14278 34908 ft 509 kts 114°
2026-04-25 07:44 25.06784 57.21441 34915 ft 510 kts 114°
2026-04-25 07:44 25.04027 57.28625 34909 ft 509 kts 114°
2026-04-25 07:45 25.01268 57.35804 34908 ft 508 kts 113°
2026-04-25 07:45 24.98490 57.43020 34909 ft 509 kts 113°
2026-04-25 07:46 24.95722 57.50199 34903 ft 508 kts 114°
2026-04-25 07:46 24.92959 57.57350 34910 ft 507 kts 113°
2026-04-25 07:47 24.90200 57.64480 34902 ft 506 kts 113°
2026-04-25 07:47 24.87436 57.71612 34890 ft 507 kts 114°
2026-04-25 07:48 24.84660 57.78761 34894 ft 505 kts 114°
2026-04-25 07:48 24.82467 57.86124 34897 ft 507 kts 103°
2026-04-25 07:49 24.80945 57.93658 34894 ft 506 kts 102°
2026-04-25 07:49 24.79421 58.01198 34895 ft 504 kts 102°
2026-04-25 07:50 24.77885 58.08758 34896 ft 504 kts 102°
2026-04-25 07:50 24.76339 58.16340 34893 ft 504 kts 102°
2026-04-25 07:51 24.74808 58.23815 34896 ft 505 kts 102°
2026-04-25 07:51 24.73249 58.31403 34897 ft 504 kts 102°
2026-04-25 07:52 24.71699 58.38926 34899 ft 504 kts 102°
2026-04-25 07:52 24.70148 58.46434 34896 ft 505 kts 102°
2026-04-25 07:53 24.68591 58.53950 34898 ft 504 kts 102°
2026-04-25 07:53 24.67027 58.61476 34899 ft 504 kts 102°
2026-04-25 07:54 24.65462 58.68990 34899 ft 502 kts 103°
2026-04-25 07:54 24.63894 58.76498 34894 ft 505 kts 102°
2026-04-25 07:55 24.62332 58.83960 34894 ft 503 kts 103°
2026-04-25 07:55 24.60757 58.91460 34896 ft 504 kts 103°
2026-04-25 07:56 24.59181 58.98948 34899 ft 502 kts 102°
2026-04-25 07:56 24.57603 59.06430 34901 ft 503 kts 102°
2026-04-25 07:57 24.56022 59.13901 34901 ft 502 kts 102°
2026-04-25 07:57 24.54440 59.21358 34902 ft 503 kts 102°
2026-04-25 07:58 24.52844 59.28857 34903 ft 502 kts 102°
2026-04-25 07:58 24.51254 59.36308 34902 ft 501 kts 102°
2026-04-25 07:59 24.49662 59.43753 34903 ft 501 kts 102°
2026-04-25 07:59 24.48058 59.51230 34902 ft 500 kts 102°
2026-04-25 08:00 24.46466 59.58637 34905 ft 501 kts 102°
2026-04-25 08:00 24.44857 59.66102 34900 ft 500 kts 103°
2026-04-25 08:01 24.43255 59.73513 34899 ft 500 kts 102°
2026-04-25 08:01 24.41655 59.80900 34898 ft 501 kts 102°
2026-04-25 08:02 24.40039 59.88341 34899 ft 500 kts 102°
2026-04-25 08:02 24.38427 59.95745 34903 ft 500 kts 102°
2026-04-25 08:03 24.36807 60.03168 34899 ft 500 kts 102°
2026-04-25 08:03 24.35180 60.10603 34899 ft 499 kts 102°
2026-04-25 08:04 24.33566 60.17967 34900 ft 500 kts 102°
2026-04-25 08:04 24.31939 60.25378 34906 ft 499 kts 102°
2026-04-25 08:05 24.30312 60.32767 34902 ft 499 kts 102°
2026-04-25 08:05 24.28677 60.40173 34907 ft 499 kts 102°
2026-04-25 08:06 24.27039 60.47574 34904 ft 499 kts 102°
2026-04-25 08:06 24.25395 60.54983 34909 ft 499 kts 102°
2026-04-25 08:07 24.23758 60.62345 34907 ft 498 kts 102°
2026-04-25 08:07 24.22100 60.69784 34906 ft 499 kts 103°
2026-04-25 08:08 24.20446 60.77188 34907 ft 499 kts 102°
2026-04-25 08:08 24.18795 60.84580 34895 ft 499 kts 102°
2026-04-25 08:09 24.17142 60.91964 34907 ft 499 kts 102°
2026-04-25 08:09 24.15480 60.99369 34907 ft 499 kts 102°
2026-04-25 08:10 24.13821 61.06741 34910 ft 498 kts 102°
2026-04-25 08:10 24.12161 61.14103 34915 ft 499 kts 102°
2026-04-25 08:11 24.10494 61.21479 34907 ft 498 kts 102°
2026-04-25 08:11 24.08834 61.28803 34907 ft 498 kts 102°
2026-04-25 08:12 24.07626 61.36256 34916 ft 495 kts 92°
2026-04-25 08:12 24.07178 61.43777 34912 ft 496 kts 91°
2026-04-25 08:13 24.06740 61.51251 34916 ft 495 kts 92°
2026-04-25 08:14 24.06067 61.62537 34912 ft 494 kts 92°
2026-04-25 08:14 24.05611 61.70094 34909 ft 495 kts 92°
2026-04-25 08:15 24.05152 61.77611 34909 ft 494 kts 92°
2026-04-25 08:15 24.04690 61.85126 34911 ft 495 kts 92°
2026-04-25 08:16 24.04225 61.92614 34913 ft 494 kts 92°
2026-04-25 08:16 24.03754 62.00149 34916 ft 495 kts 92°
2026-04-25 08:17 24.03281 62.07644 34913 ft 494 kts 92°
2026-04-25 08:17 24.02807 62.15104 34918 ft 493 kts 92°
2026-04-25 08:18 24.02325 62.22617 34912 ft 494 kts 92°
2026-04-25 08:18 24.01843 62.30097 34913 ft 492 kts 92°
2026-04-25 08:19 24.01358 62.37552 34912 ft 493 kts 92°
2026-04-25 08:19 24.00866 62.45059 34913 ft 493 kts 92°
2026-04-25 08:20 24.00374 62.52513 34913 ft 492 kts 92°
2026-04-25 08:20 23.99880 62.59941 34916 ft 491 kts 92°
2026-04-25 08:21 23.99381 62.67391 34912 ft 491 kts 92°
2026-04-25 08:21 23.98879 62.74831 34906 ft 492 kts 92°
2026-04-25 08:22 23.98373 62.82262 34914 ft 490 kts 92°
2026-04-25 08:22 23.97869 62.89635 34914 ft 490 kts 92°
2026-04-25 08:23 23.97356 62.97081 34913 ft 490 kts 92°
2026-04-25 08:23 23.96839 63.04517 34915 ft 490 kts 93°
2026-04-25 08:24 23.96315 63.12008 34912 ft 490 kts 92°
2026-04-25 08:24 23.95793 63.19426 34914 ft 489 kts 92°
2026-04-25 08:25 23.95269 63.26819 34914 ft 489 kts 92°
2026-04-25 08:25 23.94738 63.34254 34913 ft 489 kts 92°
2026-04-25 08:26 23.94207 63.41645 34910 ft 489 kts 92°
2026-04-25 08:26 23.93669 63.49085 34913 ft 488 kts 92°
2026-04-25 08:27 23.93132 63.56455 34917 ft 488 kts 92°
2026-04-25 08:27 23.92587 63.63891 34915 ft 488 kts 92°
2026-04-25 08:28 23.92045 63.71242 34907 ft 489 kts 93°
2026-04-25 08:28 23.91495 63.78643 34910 ft 487 kts 93°
2026-04-25 08:29 23.90943 63.86015 34913 ft 488 kts 93°
2026-04-25 08:29 23.90387 63.93407 34913 ft 487 kts 93°
2026-04-25 08:30 23.89828 64.00796 34908 ft 489 kts 93°
2026-04-25 08:30 23.89265 64.08177 34908 ft 487 kts 93°
2026-04-25 08:31 23.88700 64.15549 34904 ft 487 kts 93°
2026-04-25 08:31 23.88133 64.22892 34906 ft 487 kts 93°
2026-04-25 08:32 23.87561 64.30252 34904 ft 487 kts 93°
2026-04-25 08:32 23.86988 64.37585 34904 ft 486 kts 93°
2026-04-25 08:33 23.86408 64.44961 34902 ft 486 kts 93°
2026-04-25 08:33 23.85826 64.52313 34901 ft 485 kts 92°
2026-04-25 08:34 23.85246 64.59605 34903 ft 486 kts 93°
2026-04-25 08:34 23.84656 64.66974 34895 ft 485 kts 93°
2026-04-25 08:35 23.84065 64.74311 34898 ft 485 kts 93°
2026-04-25 08:35 23.83470 64.81647 34896 ft 484 kts 93°
2026-04-25 08:36 23.83207 64.88944 34898 ft 482 kts 87°
2026-04-25 08:36 23.83328 64.96272 34893 ft 482 kts 87°
2026-04-25 08:37 23.83414 65.03552 34893 ft 483 kts 87°
2026-04-25 08:37 23.83476 65.10880 34892 ft 482 kts 87°
2026-04-25 08:38 23.83525 65.18220 34891 ft 482 kts 87°
2026-04-25 08:38 23.83564 65.25510 34892 ft 482 kts 87°
2026-04-25 08:39 23.83597 65.32845 34890 ft 483 kts 87°
2026-04-25 08:39 23.83624 65.40137 34892 ft 482 kts 88°
2026-04-25 08:40 23.83648 65.47528 34889 ft 483 kts 87°
2026-04-25 08:40 23.83668 65.54859 34890 ft 483 kts 87°
2026-04-25 08:41 23.83684 65.62231 34890 ft 483 kts 87°
2026-04-25 08:41 23.83696 65.69552 34891 ft 483 kts 88°
2026-04-25 08:42 23.83705 65.76908 34892 ft 483 kts 88°
2026-04-25 08:42 23.83710 65.84233 34891 ft 484 kts 88°
2026-04-25 08:43 23.83712 65.91661 34888 ft 484 kts 88°
2026-04-25 08:43 23.83710 65.98970 34892 ft 484 kts 88°
2026-04-25 08:44 23.83705 66.06317 34889 ft 484 kts 88°
2026-04-25 08:44 23.83696 66.13703 34891 ft 484 kts 88°
2026-04-25 08:45 23.83684 66.21074 34893 ft 484 kts 88°
2026-04-25 08:45 23.83668 66.28438 34888 ft 483 kts 88°
2026-04-25 08:46 23.83649 66.35769 34890 ft 484 kts 88°
2026-04-25 08:46 23.83627 66.43111 34892 ft 484 kts 88°
2026-04-25 08:47 23.83600 66.50484 34892 ft 484 kts 88°
2026-04-25 08:47 23.83571 66.57855 34893 ft 483 kts 88°
2026-04-25 08:48 23.83537 66.65201 34887 ft 483 kts 88°
2026-04-25 08:48 23.83501 66.72545 34888 ft 483 kts 88°
2026-04-25 08:49 23.83461 66.79855 34886 ft 483 kts 88°
2026-04-25 08:49 23.83417 66.87223 34889 ft 483 kts 88°
2026-04-25 08:50 23.83370 66.94550 34885 ft 483 kts 88°
2026-04-25 08:50 23.83639 67.01898 34893 ft 479 kts 78°
2026-04-25 08:51 23.84810 67.09029 34888 ft 480 kts 77°
2026-04-25 08:51 23.86019 67.16244 34879 ft 479 kts 77°
2026-04-25 08:52 23.87209 67.23395 34886 ft 479 kts 77°
2026-04-25 08:52 23.88387 67.30519 34886 ft 479 kts 77°
2026-04-25 08:53 23.89577 67.37742 34880 ft 479 kts 77°
2026-04-25 08:53 23.90752 67.44907 34885 ft 479 kts 77°
2026-04-25 08:54 23.91922 67.52060 34873 ft 479 kts 77°
2026-04-25 08:54 23.93100 67.59293 34876 ft 479 kts 77°
2026-04-25 08:55 23.94259 67.66424 34876 ft 479 kts 78°
2026-04-25 08:55 23.95421 67.73595 34873 ft 479 kts 78°
2026-04-25 08:56 23.96577 67.80756 34871 ft 479 kts 78°
2026-04-25 08:56 23.97738 67.87973 34872 ft 479 kts 78°
2026-04-25 08:57 23.98887 67.95130 34866 ft 479 kts 78°
2026-04-25 08:57 24.00040 68.02341 34870 ft 479 kts 78°
2026-04-25 08:58 24.01178 68.09474 34868 ft 479 kts 78°
2026-04-25 08:58 24.02317 68.16640 34865 ft 479 kts 78°
2026-04-25 08:59 24.03460 68.23850 34868 ft 479 kts 78°
2026-04-25 08:59 24.04600 68.31065 34865 ft 479 kts 78°
2026-04-25 09:00 24.05728 68.38223 34866 ft 480 kts 78°
2026-04-25 09:00 24.06860 68.45435 34863 ft 480 kts 78°
2026-04-25 09:01 24.07993 68.52673 34864 ft 480 kts 78°
2026-04-25 09:01 24.09123 68.59914 34853 ft 480 kts 78°
2026-04-25 09:02 24.10242 68.67115 34866 ft 480 kts 78°
2026-04-25 09:02 24.11367 68.74379 34861 ft 480 kts 79°
2026-04-25 09:03 24.11648 68.81662 34863 ft 483 kts 89°
2026-04-25 09:03 24.11551 68.89044 34868 ft 484 kts 89°
2026-04-25 09:04 24.11447 68.96410 34859 ft 483 kts 89°
2026-04-25 09:04 24.11339 69.03754 34871 ft 483 kts 89°
2026-04-25 09:05 24.11226 69.11133 34859 ft 482 kts 89°
2026-04-25 09:05 24.11110 69.18500 34861 ft 483 kts 89°
2026-04-25 09:06 24.10992 69.25832 34857 ft 482 kts 89°
2026-04-25 09:06 24.10870 69.33131 34865 ft 482 kts 89°
2026-04-25 09:07 24.10743 69.40485 34858 ft 482 kts 89°
2026-04-25 09:07 24.10614 69.47834 34871 ft 482 kts 89°
2026-04-25 09:08 24.10482 69.55125 34873 ft 481 kts 89°
2026-04-25 09:08 24.10345 69.62475 34868 ft 482 kts 89°
2026-04-25 09:09 24.10205 69.69805 34865 ft 481 kts 90°
2026-04-25 09:09 24.10063 69.77085 34864 ft 482 kts 90°
2026-04-25 09:10 24.09916 69.84400 34864 ft 481 kts 90°
2026-04-25 09:10 24.09767 69.91681 34863 ft 480 kts 90°
2026-04-25 09:11 24.09536 70.02612 34858 ft 481 kts 90°
2026-04-25 09:11 24.09377 70.09937 34871 ft 480 kts 90°
2026-04-25 09:12 24.09216 70.17224 34869 ft 480 kts 90°
2026-04-25 09:12 24.09051 70.24513 34864 ft 478 kts 90°
2026-04-25 09:13 24.08883 70.31778 34864 ft 477 kts 90°
2026-04-25 09:13 24.08712 70.39018 34865 ft 477 kts 90°
2026-04-25 09:14 24.08537 70.46264 34869 ft 476 kts 90°
2026-04-25 09:14 24.08360 70.53482 34869 ft 474 kts 90°
2026-04-25 09:15 24.08181 70.60673 34870 ft 475 kts 90°
2026-04-25 09:15 24.07997 70.67883 34868 ft 474 kts 90°
2026-04-25 09:16 24.07809 70.75120 34870 ft 473 kts 90°
2026-04-25 09:16 24.07620 70.82279 34866 ft 473 kts 90°
2026-04-25 09:17 24.07330 70.93040 34870 ft 471 kts 90°
2026-04-25 09:18 24.07132 71.00223 34866 ft 471 kts 90°
2026-04-25 09:18 24.06933 71.07363 34862 ft 472 kts 90°
2026-04-25 09:19 24.06730 71.14551 34859 ft 471 kts 90°
2026-04-25 09:19 24.06525 71.21700 34859 ft 471 kts 90°
2026-04-25 09:20 24.06316 71.28859 34857 ft 471 kts 90°
2026-04-25 09:20 24.06103 71.36025 34856 ft 471 kts 90°
2026-04-25 09:21 24.05888 71.43159 34850 ft 471 kts 90°
2026-04-25 09:21 24.05669 71.50320 34851 ft 471 kts 90°
2026-04-25 09:22 24.05448 71.57444 34850 ft 471 kts 90°
2026-04-25 09:22 24.05222 71.64593 34849 ft 472 kts 90°
2026-04-25 09:23 24.04993 71.71748 34845 ft 471 kts 90°
2026-04-25 09:23 24.04761 71.78916 34848 ft 471 kts 90°
2026-04-25 09:24 24.04525 71.86077 34851 ft 471 kts 90°
2026-04-25 09:24 24.04285 71.93251 34851 ft 471 kts 90°
2026-04-25 09:25 24.04043 72.00408 34849 ft 471 kts 90°
2026-04-25 09:25 24.03798 72.07526 34850 ft 471 kts 90°
2026-04-25 09:26 24.03549 72.14706 34854 ft 471 kts 90°
2026-04-25 09:26 24.03298 72.21817 34855 ft 472 kts 90°
2026-04-25 09:27 24.03042 72.28989 34860 ft 472 kts 90°
2026-04-25 09:27 24.02783 72.36128 34863 ft 471 kts 90°
2026-04-25 09:28 24.02521 72.43279 34867 ft 472 kts 90°
2026-04-25 09:28 24.02256 72.50439 34873 ft 471 kts 91°
2026-04-25 09:29 24.01985 72.57644 34877 ft 472 kts 90°
2026-04-25 09:29 24.01713 72.64798 34885 ft 472 kts 90°
2026-04-25 09:30 24.01628 72.71978 34892 ft 471 kts 87°
2026-04-25 09:30 24.01754 72.79105 34889 ft 472 kts 88°
2026-04-25 09:31 24.01861 72.86283 34892 ft 472 kts 88°
2026-04-25 09:31 24.01956 72.93465 34700 ft 472 kts 88°
2026-04-25 09:31 24.02000 72.97022 34838 ft 471 kts 88°
2026-04-25 09:32 24.02042 73.00621 34882 ft 477 kts 88°
2026-04-25 09:32 24.02123 73.07844 34863 ft 471 kts 88°
2026-04-25 09:33 24.02199 73.15088 34891 ft 475 kts 88°
2026-04-25 09:33 24.02270 73.22256 34855 ft 474 kts 88°
2026-04-25 09:34 24.02338 73.29458 34902 ft 474 kts 88°
2026-04-25 09:34 24.02401 73.36636 34914 ft 473 kts 88°
2026-04-25 09:35 24.02462 73.43831 34927 ft 473 kts 88°
2026-04-25 09:35 24.02519 73.51017 35091 ft 475 kts 88°
2026-04-25 09:35 24.02547 73.54628 34799 ft 469 kts 88°
2026-04-25 09:36 24.02572 73.58147 35114 ft 470 kts 88°
2026-04-25 09:36 24.02599 73.61800 34940 ft 473 kts 88°
2026-04-25 09:36 24.02623 73.65328 34924 ft 469 kts 88°
2026-04-25 09:37 24.02670 73.72475 34921 ft 470 kts 88°
2026-04-25 09:37 24.02714 73.79605 34909 ft 468 kts 88°
2026-04-25 09:38 24.02756 73.86710 34901 ft 469 kts 88°
2026-04-25 09:38 24.02794 73.93846 34897 ft 468 kts 88°
2026-04-25 09:39 24.02829 74.00914 34887 ft 469 kts 88°
2026-04-25 09:39 24.02861 74.08057 34894 ft 468 kts 88°
2026-04-25 09:40 24.03010 74.18707 34892 ft 468 kts 88°
2026-04-25 09:40 24.03115 74.25793 34894 ft 469 kts 88°
2026-04-25 09:41 24.03214 74.32886 34894 ft 469 kts 88°
2026-04-25 09:41 24.03311 74.40051 34903 ft 468 kts 88°
2026-04-25 09:42 24.03402 74.47156 34906 ft 469 kts 88°
2026-04-25 09:42 24.03490 74.54250 34909 ft 468 kts 88°
2026-04-25 09:43 24.03575 74.61358 34940 ft 469 kts 88°
2026-04-25 09:43 24.03657 74.68509 34952 ft 469 kts 88°
2026-04-25 09:44 24.03242 74.75595 34968 ft 470 kts 101°
2026-04-25 09:44 24.01450 74.82469 34961 ft 472 kts 105°
2026-04-25 09:45 23.99523 74.89342 34962 ft 471 kts 105°
2026-04-25 09:45 23.97603 74.96169 34957 ft 471 kts 105°
2026-04-25 09:46 23.95672 75.03020 34956 ft 472 kts 105°
2026-04-25 09:46 23.93730 75.09896 34956 ft 472 kts 105°
2026-04-25 09:47 23.91791 75.16749 34954 ft 474 kts 106°
2026-04-25 09:47 23.89849 75.23600 34951 ft 474 kts 106°
2026-04-25 09:48 23.87900 75.30460 34947 ft 473 kts 106°
2026-04-25 09:48 23.85949 75.37315 34944 ft 474 kts 106°
2026-04-25 09:49 23.83984 75.44205 34945 ft 475 kts 106°
2026-04-25 09:49 23.82028 75.51054 34942 ft 476 kts 106°
2026-04-25 09:50 23.80056 75.57943 34944 ft 476 kts 106°
2026-04-25 09:50 23.78080 75.64835 34946 ft 476 kts 106°
2026-04-25 09:51 23.76090 75.71763 34947 ft 477 kts 107°
2026-04-25 09:51 23.74105 75.78661 34947 ft 478 kts 107°
2026-04-25 09:52 23.72101 75.85611 34955 ft 482 kts 107°
2026-04-25 09:52 23.70093 75.92562 34956 ft 479 kts 107°
2026-04-25 09:53 23.68079 75.99521 34958 ft 482 kts 107°
2026-04-25 09:53 23.66054 76.06475 34959 ft 484 kts 107°
2026-04-25 09:54 23.64019 76.13443 34953 ft 488 kts 107°
2026-04-25 09:54 23.61961 76.20478 34945 ft 489 kts 107°
2026-04-25 09:55 23.59898 76.27516 34943 ft 489 kts 107°
2026-04-25 09:55 23.57811 76.34623 34943 ft 489 kts 108°
2026-04-25 09:56 23.55726 76.41708 34940 ft 493 kts 108°
2026-04-25 09:56 23.53643 76.48778 34948 ft 493 kts 108°
2026-04-25 09:57 23.51543 76.55890 34943 ft 495 kts 108°
2026-04-25 09:57 23.49432 76.63026 34947 ft 496 kts 108°
2026-04-25 09:58 23.47320 76.70154 34940 ft 495 kts 108°
2026-04-25 09:58 23.45200 76.77293 34942 ft 496 kts 109°
2026-04-25 09:59 23.43076 76.84434 34941 ft 499 kts 109°
2026-04-25 09:59 23.40935 76.91618 34944 ft 497 kts 109°
2026-04-25 10:00 23.38797 76.98779 34943 ft 500 kts 109°
2026-04-25 10:00 23.36643 77.05980 34952 ft 499 kts 109°
2026-04-25 10:01 23.34496 77.13145 34955 ft 502 kts 109°
2026-04-25 10:01 23.32321 77.20387 34955 ft 502 kts 110°
2026-04-25 10:02 23.30150 77.27608 34950 ft 500 kts 110°
2026-04-25 10:02 23.27987 77.34773 34952 ft 502 kts 111°
2026-04-25 10:03 23.25616 77.41894 34956 ft 503 kts 112°
2026-04-25 10:03 23.23201 77.49068 34943 ft 502 kts 112°
2026-04-25 10:04 23.20790 77.56238 34932 ft 504 kts 112°
2026-04-25 10:04 23.18398 77.63354 34946 ft 506 kts 112°
2026-04-25 10:05 23.15983 77.70534 34934 ft 503 kts 113°
2026-04-25 10:05 23.13579 77.77671 34928 ft 504 kts 113°
2026-04-25 10:06 23.11164 77.84830 34919 ft 507 kts 114°
2026-04-25 10:06 23.08758 77.91955 34923 ft 505 kts 114°
2026-04-25 10:07 23.06328 77.99137 34905 ft 506 kts 114°
2026-04-25 10:07 23.03897 78.06308 34896 ft 509 kts 114°
2026-04-25 10:08 23.01465 78.13474 34905 ft 507 kts 114°
2026-04-25 10:08 22.99021 78.20662 34892 ft 509 kts 114°
2026-04-25 10:09 22.96563 78.27876 34898 ft 512 kts 114°
2026-04-25 10:09 22.94107 78.35076 34898 ft 510 kts 114°
2026-04-25 10:10 22.91647 78.42273 34900 ft 512 kts 114°
2026-04-25 10:10 22.89167 78.49519 34914 ft 513 kts 115°
2026-04-25 10:11 22.86695 78.56727 34915 ft 515 kts 114°
2026-04-25 10:11 22.84195 78.64008 34914 ft 513 kts 115°
2026-04-25 10:12 22.81700 78.71256 34904 ft 516 kts 116°
2026-04-25 10:13 22.77943 78.82156 34916 ft 513 kts 116°
2026-04-25 10:13 22.75425 78.89441 34938 ft 518 kts 115°
2026-04-25 10:14 22.72932 78.96648 34957 ft 517 kts 116°
2026-04-25 10:14 22.70402 79.03944 34969 ft 517 kts 116°
2026-04-25 10:15 22.67864 79.11250 34974 ft 518 kts 115°
2026-04-25 10:15 22.65336 79.18522 34977 ft 517 kts 116°
2026-04-25 10:16 22.62797 79.25802 34990 ft 524 kts 116°
2026-04-25 10:16 22.60228 79.33167 34992 ft 519 kts 115°
2026-04-25 10:17 22.57669 79.40489 34988 ft 522 kts 116°
2026-04-25 10:17 22.55111 79.47826 34976 ft 524 kts 116°
2026-04-25 10:18 22.52571 79.55156 34969 ft 523 kts 115°
2026-04-25 10:18 22.50010 79.62531 34975 ft 525 kts 115°
2026-04-25 10:19 22.47449 79.69893 34959 ft 521 kts 116°
2026-04-25 10:19 22.44872 79.77281 34953 ft 527 kts 116°
2026-04-25 10:20 22.42310 79.84623 34951 ft 524 kts 116°
2026-04-25 10:20 22.39729 79.91997 34937 ft 527 kts 116°
2026-04-25 10:21 22.37146 79.99372 34929 ft 524 kts 116°
2026-04-25 10:21 22.34563 80.06729 34933 ft 526 kts 116°
2026-04-25 10:22 22.31958 80.14136 34946 ft 528 kts 116°
2026-04-25 10:22 22.29348 80.21549 34961 ft 529 kts 117°
2026-04-25 10:23 22.26747 80.28925 34972 ft 527 kts 117°
2026-04-25 10:23 22.24137 80.36311 34972 ft 528 kts 117°
2026-04-25 10:24 22.21525 80.43694 34971 ft 527 kts 117°
2026-04-25 10:24 22.18906 80.51091 34976 ft 529 kts 117°
2026-04-25 10:25 22.16274 80.58521 34989 ft 529 kts 117°
2026-04-25 10:25 22.13659 80.65885 34989 ft 530 kts 117°
2026-04-25 10:26 22.11013 80.73327 34970 ft 528 kts 117°
2026-04-25 10:26 22.08382 80.80709 34972 ft 531 kts 117°
2026-04-25 10:27 22.05729 80.88149 34986 ft 529 kts 117°
2026-04-25 10:27 22.03098 80.95509 34991 ft 530 kts 117°
2026-04-25 10:28 22.00436 81.02947 35002 ft 530 kts 117°
2026-04-25 10:28 21.97788 81.10332 34970 ft 531 kts 117°
2026-04-25 10:29 21.95136 81.17716 34933 ft 529 kts 117°
2026-04-25 10:29 21.92486 81.25084 34910 ft 530 kts 117°
2026-04-25 10:30 21.89825 81.32467 34897 ft 531 kts 117°
2026-04-25 10:30 21.87155 81.39868 34903 ft 529 kts 117°
2026-04-25 10:31 21.84487 81.47249 34898 ft 530 kts 117°
2026-04-25 10:31 21.81819 81.54618 34892 ft 530 kts 117°
2026-04-25 10:32 21.79146 81.61991 34887 ft 530 kts 117°
2026-04-25 10:32 21.76712 81.69448 34869 ft 533 kts 112°
2026-04-25 10:33 21.74575 81.77093 34857 ft 534 kts 112°
2026-04-25 10:33 21.72413 81.84738 34860 ft 535 kts 112°
2026-04-25 10:34 21.70235 81.92364 34862 ft 534 kts 112°
2026-04-25 10:34 21.68054 81.99957 34864 ft 534 kts 112°
2026-04-25 10:35 21.65858 82.07563 34863 ft 535 kts 112°
2026-04-25 10:35 21.63662 82.15148 34862 ft 533 kts 112°
2026-04-25 10:36 21.61446 82.22781 34863 ft 534 kts 112°
2026-04-25 10:36 21.59248 82.30334 34866 ft 535 kts 112°
2026-04-25 10:37 21.57024 82.37964 34875 ft 533 kts 112°
2026-04-25 10:37 21.54811 82.45537 34887 ft 533 kts 112°
2026-04-25 10:38 21.52599 82.53096 34898 ft 533 kts 112°
2026-04-25 10:38 21.50371 82.60689 34905 ft 534 kts 112°
2026-04-25 10:39 21.48122 82.68070 34883 ft 529 kts 117°
2026-04-25 10:39 21.45337 82.75407 34887 ft 528 kts 118°
2026-04-25 10:40 21.42551 82.82656 34887 ft 529 kts 118°
2026-04-25 10:40 21.39743 82.89960 34876 ft 528 kts 118°
2026-04-25 10:41 21.36958 82.97195 34869 ft 528 kts 118°
2026-04-25 10:41 21.34156 83.04466 34865 ft 527 kts 118°
2026-04-25 10:42 21.31351 83.11736 34864 ft 528 kts 118°
2026-04-25 10:42 21.28556 83.18969 34866 ft 528 kts 118°
2026-04-25 10:43 21.25733 83.26267 34870 ft 528 kts 118°
2026-04-25 10:43 21.22922 83.33518 34867 ft 531 kts 118°
2026-04-25 10:44 21.20107 83.40775 34860 ft 530 kts 118°
2026-04-25 10:44 21.17269 83.48076 34852 ft 530 kts 118°
2026-04-25 10:45 21.14441 83.55342 34845 ft 530 kts 118°
2026-04-25 10:45 21.11601 83.62630 34843 ft 530 kts 118°
2026-04-25 10:46 21.08768 83.69887 34823 ft 531 kts 118°
2026-04-25 10:46 21.05926 83.77158 34822 ft 530 kts 118°
2026-04-25 10:47 21.03083 83.84418 34822 ft 531 kts 118°
2026-04-25 10:47 21.00218 83.91724 34821 ft 532 kts 118°
2026-04-25 10:48 20.97364 83.98995 34818 ft 531 kts 118°
2026-04-25 10:48 20.94489 84.06306 34827 ft 532 kts 118°
2026-04-25 10:49 20.91616 84.13602 34835 ft 530 kts 118°
2026-04-25 10:49 20.88757 84.20849 34845 ft 533 kts 118°
2026-04-25 10:50 20.85876 84.28146 34849 ft 532 kts 118°
2026-04-25 10:50 20.82999 84.35421 34843 ft 532 kts 118°
2026-04-25 10:51 20.80111 84.42710 34840 ft 532 kts 118°
2026-04-25 10:51 20.77240 84.49950 34831 ft 532 kts 118°
2026-04-25 10:52 20.74339 84.57252 34838 ft 532 kts 118°
2026-04-25 10:52 20.71455 84.64501 34865 ft 532 kts 117°
2026-04-25 10:53 20.68579 84.71722 34858 ft 531 kts 118°
2026-04-25 10:53 20.65685 84.78975 34869 ft 531 kts 118°
2026-04-25 10:54 20.62796 84.86205 34861 ft 531 kts 118°
2026-04-25 10:54 20.59883 84.93487 34847 ft 532 kts 118°
2026-04-25 10:55 20.56980 85.00732 34831 ft 532 kts 117°
2026-04-25 10:55 20.54088 85.07941 34842 ft 531 kts 118°
2026-04-25 10:56 20.51165 85.15214 34855 ft 531 kts 117°
2026-04-25 10:56 20.48253 85.22452 34879 ft 532 kts 118°
2026-04-25 10:57 20.45340 85.29681 34880 ft 530 kts 117°
2026-04-25 10:57 20.42428 85.36896 34875 ft 532 kts 117°
2026-04-25 10:58 20.39515 85.44107 34880 ft 530 kts 117°
2026-04-25 10:58 20.36591 85.51333 34868 ft 531 kts 117°
2026-04-25 10:59 20.33656 85.58575 34863 ft 532 kts 117°
2026-04-25 10:59 20.30729 85.65791 34862 ft 532 kts 118°
2026-04-25 11:00 20.27781 85.73045 34846 ft 532 kts 117°
2026-04-25 11:00 20.24843 85.80267 34848 ft 532 kts 118°
2026-04-25 11:01 20.22081 85.87564 34851 ft 533 kts 115°
2026-04-25 11:01 20.19444 85.94900 34856 ft 533 kts 115°
2026-04-25 11:02 20.16777 86.02279 34866 ft 533 kts 115°
2026-04-25 11:02 20.14083 86.09697 34860 ft 533 kts 115°
2026-04-25 11:03 20.11401 86.17059 34864 ft 533 kts 115°
2026-04-25 11:03 20.08733 86.24393 34877 ft 532 kts 115°
2026-04-25 11:04 20.06060 86.31735 34878 ft 532 kts 115°
2026-04-25 11:04 20.03379 86.39085 34879 ft 533 kts 115°
2026-04-25 11:05 20.00696 86.46429 34879 ft 533 kts 114°
2026-04-25 11:05 19.98016 86.53752 34888 ft 532 kts 115°
2026-04-25 11:06 19.95319 86.61111 34889 ft 533 kts 114°
2026-04-25 11:06 19.92613 86.68482 34870 ft 531 kts 115°
2026-04-25 11:07 19.89922 86.75803 34883 ft 531 kts 115°
2026-04-25 11:07 19.87219 86.83138 34882 ft 532 kts 115°
2026-04-25 11:08 19.84525 86.90443 34883 ft 532 kts 115°
2026-04-25 11:08 19.81823 86.97760 34888 ft 530 kts 115°
2026-04-25 11:09 19.79129 87.05042 34885 ft 530 kts 115°
2026-04-25 11:09 19.76421 87.12352 34889 ft 531 kts 115°
2026-04-25 11:10 19.73726 87.19616 34892 ft 530 kts 115°
2026-04-25 11:10 19.71018 87.26904 34896 ft 531 kts 115°
2026-04-25 11:11 19.68323 87.34148 34897 ft 529 kts 115°
2026-04-25 11:11 19.65611 87.41428 34900 ft 530 kts 115°
2026-04-25 11:12 19.62892 87.48713 34902 ft 529 kts 115°
2026-04-25 11:12 19.60166 87.56011 34902 ft 529 kts 114°
2026-04-25 11:13 19.57433 87.63315 34901 ft 530 kts 115°
2026-04-25 11:13 19.54713 87.70573 34892 ft 529 kts 115°
2026-04-25 11:14 19.52004 87.77795 34895 ft 529 kts 115°
2026-04-25 11:14 19.49272 87.85066 34893 ft 529 kts 115°
2026-04-25 11:15 19.46545 87.92312 34904 ft 528 kts 115°
2026-04-25 11:15 19.43827 87.99526 34898 ft 528 kts 115°
2026-04-25 11:16 19.39732 88.10375 34900 ft 528 kts 115°
2026-04-25 11:16 19.36989 88.17629 34901 ft 528 kts 115°
2026-04-25 11:17 19.34253 88.24856 34900 ft 529 kts 115°
2026-04-25 11:17 19.31538 88.32017 34907 ft 529 kts 115°
2026-04-25 11:18 19.28803 88.39221 34906 ft 527 kts 115°
2026-04-25 11:18 19.26043 88.46481 34910 ft 528 kts 115°
2026-04-25 11:19 19.23308 88.53666 34912 ft 527 kts 115°
2026-04-25 11:19 19.20563 88.60864 34918 ft 528 kts 115°
2026-04-25 11:20 19.17816 88.68080 34898 ft 528 kts 114°
2026-04-25 11:20 19.15185 88.75291 34903 ft 528 kts 114°
2026-04-25 11:21 19.12548 88.82525 34898 ft 529 kts 114°
2026-04-25 11:21 19.09888 88.89804 34906 ft 527 kts 114°
2026-04-25 11:22 19.07681 88.95828 34903 ft 528 kts 114°
2026-04-25 11:22 19.04596 89.04237 34911 ft 527 kts 114°
2026-04-25 11:23 19.01939 89.11465 34913 ft 527 kts 114°
2026-04-25 11:23 18.99290 89.18659 34916 ft 526 kts 114°
2026-04-25 11:24 18.96633 89.25868 34912 ft 527 kts 114°
2026-04-25 11:24 18.93975 89.33064 34916 ft 528 kts 113°
2026-04-25 11:25 18.91326 89.40231 34917 ft 526 kts 114°
2026-04-25 11:25 18.88666 89.47417 34916 ft 527 kts 113°
2026-04-25 11:26 18.85995 89.54620 34918 ft 526 kts 113°
2026-04-25 11:26 18.83309 89.61857 34920 ft 526 kts 113°
2026-04-25 11:27 18.80652 89.69005 34909 ft 526 kts 114°
2026-04-25 11:27 18.78419 89.75005 34906 ft 527 kts 114°
2026-04-25 11:28 18.75300 89.83375 34908 ft 525 kts 114°
2026-04-25 11:28 18.72618 89.90559 34909 ft 528 kts 114°
2026-04-25 11:29 18.69916 89.97790 34907 ft 527 kts 114°
2026-04-25 11:29 18.67243 90.04934 34912 ft 526 kts 114°
2026-04-25 11:30 18.64544 90.12134 34911 ft 527 kts 114°
2026-04-25 11:30 18.61840 90.19341 34910 ft 527 kts 114°
2026-04-25 11:31 18.59150 90.26501 34914 ft 527 kts 113°
2026-04-25 11:31 18.56466 90.33635 34914 ft 526 kts 113°
2026-04-25 11:32 18.53756 90.40830 34913 ft 525 kts 113°
2026-04-25 11:32 18.51060 90.47975 34916 ft 527 kts 113°
2026-04-25 11:33 18.48347 90.55157 34915 ft 527 kts 113°
2026-04-25 11:33 18.45633 90.62336 34917 ft 526 kts 113°
2026-04-25 11:34 18.42929 90.69476 34904 ft 526 kts 114°
2026-04-25 11:34 18.40219 90.76623 34905 ft 526 kts 114°
2026-04-25 11:35 18.37519 90.83733 34907 ft 526 kts 114°
2026-04-25 11:35 18.34788 90.90916 34907 ft 527 kts 114°
2026-04-25 11:36 18.32060 90.98081 34906 ft 525 kts 113°
2026-04-25 11:36 18.29358 91.05172 34913 ft 526 kts 113°
2026-04-25 11:37 18.26620 91.12346 34911 ft 526 kts 113°
2026-04-25 11:37 18.23902 91.19458 34913 ft 525 kts 113°
2026-04-25 11:38 18.21176 91.26582 34914 ft 526 kts 113°
2026-04-25 11:38 18.18444 91.33714 34914 ft 525 kts 113°
2026-04-25 11:39 18.15721 91.40810 34919 ft 526 kts 113°
2026-04-25 11:39 18.12983 91.47939 34916 ft 525 kts 113°
2026-04-25 11:40 18.10252 91.55041 34918 ft 526 kts 113°
2026-04-25 11:40 18.07530 91.62109 34918 ft 525 kts 113°
2026-04-25 11:41 18.04776 91.69253 34907 ft 523 kts 114°
2026-04-25 11:41 18.02025 91.76378 34909 ft 526 kts 114°
2026-04-25 11:42 17.99292 91.83450 34911 ft 525 kts 114°
2026-04-25 11:42 17.96537 91.90568 34908 ft 524 kts 113°
2026-04-25 11:43 17.93799 91.97635 34913 ft 525 kts 113°
2026-04-25 11:43 17.91020 92.04728 34906 ft 525 kts 114°
2026-04-25 11:44 17.88220 92.11798 34905 ft 523 kts 114°
2026-04-25 11:44 17.85422 92.18856 34904 ft 524 kts 114°
2026-04-25 11:45 17.82617 92.25925 34906 ft 524 kts 113°
2026-04-25 11:45 17.79808 92.32999 34911 ft 524 kts 113°
2026-04-25 11:46 17.77008 92.40041 34903 ft 524 kts 114°
2026-04-25 11:46 17.74207 92.47077 34909 ft 523 kts 114°
2026-04-25 11:47 17.71412 92.54090 34909 ft 525 kts 113°
2026-04-25 11:47 17.68602 92.61135 34905 ft 522 kts 113°
2026-04-25 11:48 17.65806 92.68134 34896 ft 522 kts 114°
2026-04-25 11:48 17.62992 92.75170 34895 ft 524 kts 114°
2026-04-25 11:49 17.60174 92.82208 34894 ft 524 kts 114°
2026-04-25 11:49 17.57357 92.89235 34896 ft 523 kts 113°
2026-04-25 11:50 17.54532 92.96274 34898 ft 523 kts 114°
2026-04-25 11:50 17.51711 93.03294 34900 ft 521 kts 113°
2026-04-25 11:51 17.48903 93.10272 34895 ft 523 kts 113°
2026-04-25 11:51 17.46082 93.17277 34898 ft 522 kts 113°
2026-04-25 11:52 17.43248 93.24305 34902 ft 522 kts 113°
2026-04-25 11:52 17.40437 93.31266 34904 ft 522 kts 113°
2026-04-25 11:53 17.37613 93.38252 34902 ft 521 kts 113°
2026-04-25 11:53 17.34783 93.45247 34901 ft 522 kts 113°
2026-04-25 11:54 17.31951 93.52235 34905 ft 521 kts 113°
2026-04-25 11:55 17.27720 93.62664 34901 ft 521 kts 113°
2026-04-25 11:55 17.24894 93.69617 34893 ft 521 kts 114°
2026-04-25 11:56 17.22037 93.76642 34892 ft 521 kts 113°
2026-04-25 11:56 17.19211 93.83580 34892 ft 520 kts 114°
2026-04-25 11:57 17.16375 93.90535 34892 ft 521 kts 114°
2026-04-25 11:57 17.13526 93.97514 34890 ft 522 kts 114°
2026-04-25 11:58 17.10670 94.04503 34886 ft 522 kts 113°
2026-04-25 11:58 17.07814 94.11484 34878 ft 522 kts 113°
2026-04-25 11:59 17.04976 94.18413 34887 ft 521 kts 113°
2026-04-25 11:59 17.02107 94.25409 34877 ft 521 kts 113°
2026-04-25 12:00 16.97837 94.35807 34869 ft 521 kts 113°
2026-04-25 12:01 16.93559 94.46206 34875 ft 520 kts 113°
2026-04-25 12:01 16.90712 94.53117 34874 ft 518 kts 113°
2026-04-25 12:02 16.86445 94.63461 34860 ft 520 kts 113°
2026-04-25 12:02 16.83593 94.70367 34857 ft 519 kts 114°
2026-04-25 12:03 16.80723 94.77307 34850 ft 517 kts 114°
2026-04-25 12:03 16.77554 94.83989 34845 ft 518 kts 118°
2026-04-25 12:04 16.74252 94.90696 34839 ft 517 kts 117°
2026-04-25 12:04 16.70978 94.97378 34834 ft 517 kts 117°
2026-04-25 12:05 16.67740 95.04002 34840 ft 515 kts 117°
2026-04-25 12:05 16.64493 95.10651 34846 ft 515 kts 117°
2026-04-25 12:06 16.61236 95.17320 34846 ft 515 kts 117°
2026-04-25 12:06 16.57989 95.23965 34851 ft 512 kts 117°
2026-04-25 12:07 16.54744 95.30602 34849 ft 515 kts 117°
2026-04-25 12:07 16.51514 95.37204 34855 ft 511 kts 117°
2026-04-25 12:08 16.48262 95.43844 34859 ft 513 kts 117°
2026-04-25 12:08 16.45036 95.50426 34860 ft 510 kts 117°
2026-04-25 12:09 16.41804 95.57012 34864 ft 512 kts 117°
2026-04-25 12:09 16.38566 95.63605 34866 ft 510 kts 117°
2026-04-25 12:10 16.35338 95.70172 34864 ft 511 kts 117°
2026-04-25 12:10 16.32087 95.76779 34867 ft 509 kts 117°
2026-04-25 12:11 16.28855 95.83341 34867 ft 511 kts 117°
2026-04-25 12:11 16.25626 95.89890 34876 ft 509 kts 117°
2026-04-25 12:12 16.22931 95.95352 34870 ft 510 kts 117°
2026-04-25 12:12 16.19158 96.02992 34886 ft 509 kts 117°
2026-04-25 12:13 16.15933 96.09515 34888 ft 507 kts 117°
2026-04-25 12:13 16.12685 96.16079 34885 ft 509 kts 117°
2026-04-25 12:14 16.09468 96.22574 34883 ft 508 kts 117°
2026-04-25 12:14 16.06232 96.29101 34891 ft 506 kts 117°
2026-04-25 12:15 16.02981 96.35651 34891 ft 506 kts 117°
2026-04-25 12:15 15.99760 96.42135 34892 ft 506 kts 117°
2026-04-25 12:16 15.96521 96.48650 34892 ft 505 kts 117°
2026-04-25 12:16 15.93297 96.55129 34893 ft 505 kts 117°
2026-04-25 12:17 15.90066 96.61616 34893 ft 505 kts 117°
2026-04-25 12:17 15.86818 96.68130 34884 ft 505 kts 117°
2026-04-25 12:18 15.83588 96.74602 34886 ft 505 kts 117°
2026-04-25 12:18 15.80357 96.81071 34883 ft 505 kts 117°
2026-04-25 12:19 15.75511 96.90763 34887 ft 505 kts 117°
2026-04-25 12:20 15.72281 96.97215 34891 ft 504 kts 117°
2026-04-25 12:20 15.69061 97.03642 34881 ft 503 kts 117°
2026-04-25 12:21 15.65829 97.10086 34884 ft 505 kts 117°
2026-04-25 12:21 15.62589 97.16541 34874 ft 504 kts 117°
2026-04-25 12:22 15.59354 97.22980 34873 ft 503 kts 117°
2026-04-25 12:22 15.56111 97.29427 34873 ft 503 kts 117°
2026-04-25 12:23 15.52887 97.35834 34876 ft 503 kts 117°
2026-04-25 12:23 15.49648 97.42263 34861 ft 502 kts 117°
2026-04-25 12:24 15.46418 97.48670 34867 ft 501 kts 117°
2026-04-25 12:24 15.43168 97.55109 34866 ft 503 kts 117°
2026-04-25 12:25 15.39943 97.61494 34868 ft 501 kts 117°
2026-04-25 12:25 15.36698 97.67912 34857 ft 501 kts 117°
2026-04-25 12:26 15.33442 97.74347 34850 ft 501 kts 117°
2026-04-25 12:26 15.30222 97.80706 34859 ft 500 kts 117°
2026-04-25 12:27 15.26988 97.87087 34871 ft 501 kts 117°
2026-04-25 12:27 15.23735 97.93500 34882 ft 501 kts 117°
2026-04-25 12:28 15.20513 97.99844 34893 ft 500 kts 118°
2026-04-25 12:28 15.17295 98.06177 34909 ft 499 kts 117°
2026-04-25 12:29 15.14044 98.12569 34918 ft 499 kts 118°
2026-04-25 12:29 15.10826 98.18890 34941 ft 499 kts 118°
2026-04-25 12:30 15.07612 98.25279 34956 ft 498 kts 117°
2026-04-25 12:30 15.04446 98.31660 34960 ft 498 kts 117°
2026-04-25 12:31 15.01263 98.38063 34947 ft 498 kts 117°
2026-04-25 12:31 14.98099 98.44420 34933 ft 498 kts 117°
2026-04-25 12:32 14.94934 98.50771 34924 ft 498 kts 117°
2026-04-25 12:32 14.91766 98.57122 34953 ft 496 kts 117°
2026-04-25 12:33 14.88593 98.63477 34972 ft 495 kts 117°
2026-04-25 12:33 14.85426 98.69813 34992 ft 496 kts 117°
2026-04-25 12:34 14.82245 98.76176 35006 ft 496 kts 117°
2026-04-25 12:34 14.79069 98.82518 34991 ft 496 kts 117°
2026-04-25 12:35 14.75912 98.88820 34966 ft 494 kts 117°
2026-04-25 12:35 14.72734 98.95157 34952 ft 495 kts 117°
2026-04-25 12:36 14.69553 99.01495 34938 ft 494 kts 117°
2026-04-25 12:36 14.66405 99.07764 34957 ft 493 kts 117°
2026-04-25 12:37 14.63251 99.14038 34777 ft 489 kts 117°
2026-04-25 12:37 14.61679 99.17162 34267 ft 489 kts 117°
2026-04-25 12:37 14.60100 99.20301 33249 ft 493 kts 117°
2026-04-25 12:37 14.58518 99.23443 32335 ft 496 kts 117°
2026-04-25 12:38 14.56931 99.26593 31558 ft 497 kts 117°
2026-04-25 12:38 14.55318 99.29796 30728 ft 498 kts 117°
2026-04-25 12:38 14.53736 99.32933 30202 ft 493 kts 117°
2026-04-25 12:38 14.52160 99.36060 29702 ft 487 kts 117°
2026-04-25 12:39 14.50623 99.39107 29158 ft 484 kts 117°
2026-04-25 12:39 14.49065 99.42194 28577 ft 480 kts 117°
2026-04-25 12:39 14.47535 99.45224 28022 ft 477 kts 117°
2026-04-25 12:39 14.46001 99.48264 27445 ft 475 kts 116°
2026-04-25 12:40 14.44710 99.51352 26862 ft 471 kts 107°
2026-04-25 12:40 14.43918 99.54608 26287 ft 467 kts 98°
2026-04-25 12:40 14.43581 99.57909 25729 ft 463 kts 93°
2026-04-25 12:40 14.43357 99.61186 25169 ft 460 kts 93°
2026-04-25 12:41 14.43143 99.64454 24606 ft 457 kts 92°
2026-04-25 12:41 14.42932 99.67712 24042 ft 453 kts 93°
2026-04-25 12:41 14.42725 99.70930 23471 ft 450 kts 93°
2026-04-25 12:41 14.42517 99.74159 22893 ft 447 kts 93°
2026-04-25 12:42 14.42315 99.77320 22330 ft 443 kts 93°
2026-04-25 12:42 14.42178 99.79447 21959 ft 441 kts 93°
2026-04-25 12:42 14.41911 99.83620 21230 ft 436 kts 93°
2026-04-25 12:42 14.41714 99.86696 20674 ft 433 kts 93°
2026-04-25 12:43 14.41515 99.89795 20114 ft 431 kts 93°
2026-04-25 12:43 14.41319 99.92854 19553 ft 428 kts 93°
2026-04-25 12:43 14.40929 99.98904 18431 ft 422 kts 93°
2026-04-25 12:44 14.40734 100.01918 17950 ft 417 kts 93°
2026-04-25 12:44 14.40535 100.04855 17822 ft 402 kts 95°
2026-04-25 12:44 14.39384 100.10325 17393 ft 382 kts 103°
2026-04-25 12:45 14.38730 100.12952 17096 ft 374 kts 103°
2026-04-25 12:45 14.38091 100.15513 16817 ft 368 kts 104°
2026-04-25 12:45 14.36830 100.20558 16275 ft 364 kts 104°
2026-04-25 12:46 14.36233 100.22945 16017 ft 363 kts 103°
2026-04-25 12:46 14.35608 100.25447 15751 ft 361 kts 104°
2026-04-25 12:46 14.34985 100.27933 15484 ft 359 kts 104°
2026-04-25 12:46 14.34364 100.30415 15217 ft 357 kts 103°
2026-04-25 12:47 14.33747 100.32875 14953 ft 355 kts 103°
2026-04-25 12:47 14.33126 100.35353 14678 ft 354 kts 104°
2026-04-25 12:47 14.32512 100.37801 14376 ft 352 kts 104°
2026-04-25 12:47 14.31907 100.40211 14079 ft 349 kts 104°
2026-04-25 12:48 14.31296 100.42645 13785 ft 348 kts 104°
2026-04-25 12:48 14.30692 100.45049 13496 ft 345 kts 104°
2026-04-25 12:48 14.30096 100.47424 13206 ft 343 kts 103°
2026-04-25 12:48 14.29500 100.49792 12916 ft 337 kts 104°
2026-04-25 12:49 14.28920 100.52100 12642 ft 331 kts 104°
2026-04-25 12:49 14.28345 100.54383 12360 ft 325 kts 103°
2026-04-25 12:49 14.27783 100.56617 12128 ft 318 kts 103°
2026-04-25 12:49 14.27238 100.58783 11908 ft 311 kts 103°
2026-04-25 12:50 14.26696 100.60931 11663 ft 305 kts 103°
2026-04-25 12:50 14.26170 100.63021 11416 ft 300 kts 103°
2026-04-25 12:50 14.25583 100.65056 11151 ft 295 kts 114°
2026-04-25 12:50 14.24372 100.66737 10902 ft 291 kts 140°
2026-04-25 12:51 14.22636 100.67812 10546 ft 293 kts 154°
2026-04-25 12:51 14.20707 100.68579 10078 ft 298 kts 159°
2026-04-25 12:51 14.18748 100.69251 9636 ft 301 kts 160°
2026-04-25 12:51 14.16737 100.69922 9216 ft 303 kts 160°
2026-04-25 12:52 14.14712 100.70596 8724 ft 305 kts 160°
2026-04-25 12:52 14.12731 100.71257 8356 ft 298 kts 160°
2026-04-25 12:52 14.10753 100.71917 7930 ft 300 kts 160°
2026-04-25 12:52 14.08739 100.72590 7485 ft 302 kts 160°
2026-04-25 12:53 14.06743 100.73256 7060 ft 304 kts 160°
2026-04-25 12:53 14.04722 100.73930 6575 ft 304 kts 160°
2026-04-25 12:53 14.02735 100.74593 6178 ft 295 kts 160°
2026-04-25 12:53 14.00783 100.75243 5783 ft 287 kts 160°
2026-04-25 12:54 13.98925 100.75863 5399 ft 280 kts 160°
2026-04-25 12:54 13.97061 100.76485 5002 ft 275 kts 160°
2026-04-25 12:54 13.95257 100.77087 4610 ft 274 kts 160°
2026-04-25 12:54 13.93433 100.77695 4210 ft 272 kts 160°
2026-04-25 12:55 13.91645 100.78291 3822 ft 270 kts 160°
2026-04-25 12:55 13.90451 100.78689 3568 ft 269 kts 161°
2026-04-25 12:55 13.88070 100.79482 3078 ft 269 kts 160°
2026-04-25 12:55 13.86272 100.80054 2672 ft 272 kts 167°
2026-04-25 12:56 13.84383 100.80038 2461 ft 260 kts 188°
2026-04-25 12:56 13.82674 100.79672 2516 ft 241 kts 193°
2026-04-25 12:56 13.81088 100.79231 2227 ft 230 kts 193°
2026-04-25 12:56 13.79594 100.78817 1963 ft 216 kts 193°
2026-04-25 12:57 13.78172 100.78444 1710 ft 199 kts 192°
2026-04-25 12:57 13.76905 100.78117 1483 ft 179 kts 192°
2026-04-25 12:57 13.75742 100.77815 1294 ft 164 kts 193°
2026-04-25 12:57 13.74638 100.77527 1088 ft 159 kts 193°
2026-04-25 12:58 13.73582 100.77251 887 ft 156 kts 193°
2026-04-25 12:58 13.72514 100.76971 681 ft 156 kts 194°
2026-04-25 12:58 13.71496 100.76706 485 ft 147 kts 194°
2026-04-25 12:58 13.70501 100.76454 275 ft 142 kts 194°
2026-04-25 12:59 13.69539 100.76202 136 ft 142 kts 195°
2026-04-25 12:59 13.68588 100.75957 21 ft 134 kts 194°
2026-04-25 12:59 13.67840 100.75751 14 ft 84 kts 195°
2026-04-25 12:59 13.67450 100.75650 14 ft 31 kts 194°
2026-04-25 13:00 13.67274 100.75600 14 ft 20 kts 200°
2026-04-25 13:00 13.67232 100.75582 14 ft 19 kts 208°
2026-04-25 13:00 13.67118 100.75452 14 ft 9 kts 261°
2026-04-25 13:00 13.67148 100.75405 14 ft 8 kts 346°
2026-04-25 13:01 13.67206 100.75409 14 ft 8 kts
2026-04-25 13:01 13.67263 100.75422 14 ft 8 kts 14°
2026-04-25 13:01 13.67318 100.75436 14 ft 8 kts 15°
2026-04-25 13:01 13.67372 100.75452 14 ft 8 kts 14°
2026-04-25 13:02 13.67426 100.75466 14 ft 7 kts 15°
2026-04-25 13:02 13.67480 100.75481 14 ft 7 kts 15°
2026-04-25 13:02 13.67534 100.75495 14 ft 9 kts 13°
2026-04-25 13:02 13.67612 100.75514 14 ft 13 kts 14°
2026-04-25 13:03 13.67718 100.75542 14 ft 16 kts 14°
2026-04-25 13:03 13.67827 100.75571 14 ft 15 kts 14°
2026-04-25 13:03 13.67932 100.75597 14 ft 14 kts 15°
2026-04-25 13:03 13.68029 100.75622 14 ft 13 kts 14°
2026-04-25 13:04 13.68120 100.75647 14 ft 13 kts 15°
2026-04-25 13:04 13.68208 100.75671 14 ft 12 kts 15°
2026-04-25 13:04 13.68290 100.75673 14 ft 11 kts 331°
2026-04-25 13:04 13.68330 100.75608 14 ft 10 kts 289°
2026-04-25 13:05 13.68348 100.75536 14 ft 10 kts 284°
2026-04-25 13:05 13.68366 100.75468 14 ft 9 kts 284°
2026-04-25 13:05 13.68383 100.75403 14 ft 9 kts 284°
2026-04-25 13:05 13.68398 100.75342 14 ft 8 kts 284°
2026-04-25 13:06 13.68413 100.75282 14 ft 8 kts 284°
2026-04-25 13:06 13.68427 100.75226 14 ft 8 kts 284°
2026-04-25 13:06 13.68440 100.75164 14 ft 8 kts 275°
2026-04-25 13:06 13.68425 100.75108 14 ft 8 kts 229°
2026-04-25 13:07 13.68385 100.75068 14 ft 7 kts 226°
2026-04-25 13:07 13.68342 100.75040 14 ft 7 kts 202°
2026-04-25 13:07 13.68295 100.75025 14 ft 6 kts 195°
2026-04-25 13:07 13.68284 100.75023 14 ft 0 kts 194°